Location: Penum?ka
(16.4840°N, 80.5772°E)
Time: 14:31:41
(UTC+00:00)

CZ-3 Stage 3 - Pass Details

Date: 19 May 2025
Orbit: 198 x 10402 km, 30.8° (Epoch: 16 June)

Event Time Altitude Azimuth Distance (km) Brightness Sun altitude
Rises 14:02:23 0° 297° (WNW) 11,625 10.0 -14.0°
Reaches altitude 10° 14:14:58 10° 294° (WNW) 8,460 8.6 -16.7°
Maximum altitude 14:35:54 50° 225° (SW) 1,949 4.1 -21.1°
Enters shadow 14:39:29 27° 164° (SSE) 1,924 3.6 -21.8°
